,,PA_Meas_PMT16A,,PR_Meas_QMR101_102,,RH_Meas_QMH101,,SR_Meas_QMS101,,TA_Meas_QMH101,,GenWind,,GenWind,
time,status,PA,status,PR,status,RH,status,SR,status,TA,status,DirAvg,status,SpdAvg,
2014-10-31, 00:00:05,VALID,917.419,VALID,0,VALID,97.7932,VALID,0,VALID,19.9968,VALID,18,VALID,0,
2014-10-31, 00:01:05,VALID,917.416,VALID,0,VALID,97.7779,VALID,0,VALID,19.9968,VALID,18,VALID,0,
2014-10-31, 00:02:05,VALID,917.385,VALID,0,VALID,97.7703,VALID,0,VALID,19.9968,VALID,18,VALID,0,
2014-10-31, 00:03:05,VALID,917.386,VALID,0,VALID,97.8008,VALID,0,VALID,19.9953,VALID,18,VALID,0,
2014-10-31, 00:04:05,VALID,917.4,VALID,0,VALID,97.7703,VALID,0,VALID,20.0163,VALID,18,VALID,0,
2014-10-31, 00:05:05,VALID,917.414,VALID,0,VALID,97.8008,VALID,0,VALID,19.9953,VALID,18,VALID,0,
2014-10-31, 00:06:05,VALID,917.407,VALID,0,VALID,97.7856,VALID,0,VALID,19.9758,VALID,17,VALID,0,
2014-10-31, 00:07:05,VALID,917.386,VALID,0,VALID,97.7856,VALID,0.107441,VALID,19.9953,VALID,18,VALID,0,
2014-10-31, 00:08:05,VALID,917.385,VALID,0,VALID,97.8008,VALID,0,VALID,20.0148,VALID,18,VALID,0,
2014-10-31, 00:09:05,VALID,917.383,VALID,0,VALID,97.7932,VALID,0.107441,VALID,20.0133,VALID,17,VALID,0,
2014-10-31, 00:10:05,VALID,917.344,VALID,0,VALID,97.7779,VALID,0.107441,VALID,20.0133,VALID,18,VALID,0,
2014-10-31, 00:11:05,VALID,917.307,VALID,0,VALID,97.7856,VALID,0.107441,VALID,20.0328,VALID,18,VALID,0,
2014-10-31, 00:12:05,VALID,917.297,VALID,0,VALID,97.7779,VALID,0.107441,VALID,20.0328,VALID,18,VALID,0,
2014-10-31, 00:13:05,VALID,917.303,VALID,0,VALID,97.7779,VALID,0.107441,VALID,20.0523,VALID,18,VALID,0,
2014-10-31, 00:14:05,VALID,917.272,VALID,0,VALID,97.7779,VALID,0.107441,VALID,20.0523,VALID,18,VALID,0,
2014-10-31, 00:15:05,VALID,917.27,VALID,0,VALID,97.7779,VALID,0,VALID,20.0733,VALID,17,VALID,0,
2014-10-31, 00:16:05,VALID,917.252,VALID,0,VALID,97.7779,VALID,0.107441,VALID,20.0328,VALID,18,VALID,0,
2014-10-31, 00:17:05,VALID,917.221,VALID,0,VALID,97.7627,VALID,0,VALID,20.0523,VALID,18,VALID,0,
2014-10-31, 00:18:05,VALID,917.195,VALID,0,VALID,97.7856,VALID,0.107441,VALID,20.0538,VALID,18,VALID,0,
2014-10-31, 00:19:05,VALID,917.167,VALID,0,VALID,97.7779,VALID,0,VALID,20.0538,VALID,18,VALID,0,
2014-10-31, 00:20:05,VALID,917.13,VALID,0,VALID,97.7856,VALID,0.107441,VALID,20.0343,VALID,18,VALID,0,
2014-10-31, 00:21:05,VALID,917.098,VALID,0,VALID,97.7779,VALID,0,VALID,20.0328,VALID,18,VALID,0,
2014-10-31, 00:22:05,VALID,917.064,VALID,0,VALID,97.7703,VALID,0.107441,VALID,20.0328,VALID,18,VALID,0,
2014-10-31, 00:23:05,VALID,917.017,VALID,0,VALID,97.7703,VALID,0.107441,VALID,20.0733,VALID,18,VALID,0,
2014-10-31, 00:24:05,VALID,916.981,VALID,0,VALID,97.7779,VALID,0.107441,VALID,20.0733,VALID,18,VALID,0,
2014-10-31, 00:25:05,VALID,916.974,VALID,0,VALID,97.7932,VALID,0.107441,VALID,20.0718,VALID,18,VALID,0,
2014-10-31, 00:26:05,VALID,916.944,VALID,0,VALID,97.7703,VALID,0.107441,VALID,20.0523,VALID,18,VALID,0,
2014-10-31, 00:27:05,VALID,916.965,VALID,0,VALID,97.7779,VALID,0.107441,VALID,20.0523,VALID,18,VALID,0,
2014-10-31, 00:28:05,VALID,916.928,VALID,0,VALID,97.7703,VALID,0,VALID,20.0538,VALID,18,VALID,0,
2014-10-31, 00:29:05,VALID,916.94,VALID,0,VALID,97.7856,VALID,0.107441,VALID,20.0328,VALID,18,VALID,0,
2014-10-31, 00:30:05,VALID,916.919,VALID,0,VALID,97.7856,VALID,0.107441,VALID,20.0133,VALID,18,VALID,0,
2014-10-31, 00:31:05,VALID,916.932,VALID,0,VALID,97.8008,VALID,0.107441,VALID,20.0133,VALID,18,VALID,0,
2014-10-31, 00:32:05,VALID,916.903,VALID,0,VALID,97.8008,VALID,0.107441,VALID,19.9938,VALID,18,VALID,0,
2014-10-31, 00:33:05,VALID,916.898,VALID,0,VALID,97.8008,VALID,0,VALID,20.0148,VALID,18,VALID,0,
2014-10-31, 00:34:05,VALID,916.901,VALID,0,VALID,97.7932,VALID,0.107441,VALID,20.0148,VALID,18,VALID,0,
2014-10-31, 00:35:05,VALID,916.906,VALID,0,VALID,97.8008,VALID,0.107441,VALID,20.0148,VALID,18,VALID,0,
2014-10-31, 00:36:05,VALID,916.88,VALID,0,VALID,97.7856,VALID,0.107441,VALID,19.9938,VALID,18,VALID,0,
2014-10-31, 00:37:05,VALID,916.89,VALID,0,VALID,97.8084,VALID,0,VALID,20.0163,VALID,18,VALID,0,
2014-10-31, 00:38:05,VALID,916.916,VALID,0,VALID,97.7779,VALID,0,VALID,20.0163,VALID,18,VALID,0,
2014-10-31, 00:39:05,VALID,916.931,VALID,0,VALID,97.8008,VALID,0,VALID,20.0163,VALID,18,VALID,0,
2014-10-31, 00:40:05,VALID,916.923,VALID,0,VALID,97.7856,VALID,0,VALID,20.0358,VALID,18,VALID,0,
2014-10-31, 00:41:05,VALID,916.925,VALID,0,VALID,97.8008,VALID,0,VALID,20.0358,VALID,18,VALID,0,
2014-10-31, 00:42:05,VALID,916.933,VALID,0,VALID,97.816,VALID,0,VALID,20.0163,VALID,18,VALID,0,
2014-10-31, 00:43:05,VALID,916.92,VALID,0,VALID,97.7932,VALID,0,VALID,20.0749,VALID,18,VALID,0,
2014-10-31, 00:44:05,VALID,916.91,VALID,0,VALID,97.7779,VALID,0,VALID,20.0343,VALID,18,VALID,0,
2014-10-31, 00:45:05,VALID,916.895,VALID,0,VALID,97.8008,VALID,0,VALID,20.0358,VALID,17,VALID,0,
2014-10-31, 00:46:05,VALID,916.861,VALID,0,VALID,97.8084,VALID,0,VALID,20.0358,VALID,17,VALID,0,
2014-10-31, 00:47:05,VALID,916.884,VALID,0,VALID,97.8008,VALID,0,VALID,20.0749,VALID,335,VALID,0,
2014-10-31, 00:48:05,VALID,916.887,VALID,0,VALID,97.7856,VALID,0,VALID,20.0749,VALID,335,VALID,0,
2014-10-31, 00:49:05,VALID,916.887,VALID,0,VALID,97.7703,VALID,0,VALID,20.1139,VALID,335,VALID,0,
2014-10-31, 00:50:05,VALID,916.869,VALID,0,VALID,97.7703,VALID,0,VALID,20.0928,VALID,335,VALID,0,
2014-10-31, 00:51:05,VALID,916.866,VALID,0,VALID,97.8008,VALID,0,VALID,20.0944,VALID,335,VALID,0,
2014-10-31, 00:52:05,VALID,916.813,VALID,0,VALID,97.7932,VALID,0.107441,VALID,20.1123,VALID,335,VALID,0,
2014-10-31, 00:53:05,VALID,916.836,VALID,0,VALID,97.7932,VALID,0.107441,VALID,20.0913,VALID,335,VALID,0,
2014-10-31, 00:54:05,VALID,916.78,VALID,0,VALID,97.7703,VALID,0.107441,VALID,20.1108,VALID,335,VALID,0,
2014-10-31, 00:55:05,VALID,916.749,VALID,0,VALID,97.7627,VALID,0.107441,VALID,20.1108,VALID,335,VALID,0,
2014-10-31, 00:56:05,VALID,916.736,VALID,0,VALID,97.7856,VALID,0,VALID,20.0913,VALID,335,VALID,0,
2014-10-31, 00:57:05,VALID,916.725,VALID,0,VALID,97.7932,VALID,0,VALID,20.0913,VALID,335,VALID,0,
2014-10-31, 00:58:05,VALID,916.669,VALID,0,VALID,97.7779,VALID,0,VALID,20.1123,VALID,335,VALID,0,
2014-10-31, 00:59:05,VALID,916.655,VALID,0,VALID,97.7703,VALID,0.107441,VALID,20.0913,VALID,335,VALID,0,
2014-10-31, 01:00:05,VALID,916.645,VALID,0,VALID,97.7703,VALID,0,VALID,20.1318,VALID,335,VALID,0,
2014-10-31, 01:01:05,VALID,916.651,VALID,0,VALID,97.7703,VALID,0,VALID,20.1318,VALID,335,VALID,0,
2014-10-31, 01:02:05,VALID,916.629,VALID,0,VALID,97.7932,VALID,0.107441,VALID,20.1303,VALID,335,VALID,0,
2014-10-31, 01:03:05,VALID,916.601,VALID,0,VALID,97.7932,VALID,0.107441,VALID,20.1108,INVALID,360,VALID,0,
2014-10-31, 01:04:05,VALID,916.593,VALID,0,VALID,97.8008,VALID,0.107441,VALID,20.1123,VALID,335,VALID,0,
2014-10-31, 01:05:05,VALID,916.552,VALID,0,VALID,97.7779,VALID,0,VALID,20.1123,VALID,335,VALID,0,
2014-10-31, 01:06:05,VALID,916.579,VALID,0,VALID,97.7856,VALID,0.107441,VALID,20.1303,VALID,335,VALID,0,
2014-10-31, 01:07:05,VALID,916.552,VALID,0,VALID,97.8008,VALID,0,VALID,20.1318,VALID,335,VALID,0,
2014-10-31, 01:08:05,VALID,916.55,VALID,0,VALID,97.8008,VALID,0.107441,VALID,20.1123,VALID,335,VALID,0,
2014-10-31, 01:09:05,VALID,916.537,VALID,0,VALID,97.7856,VALID,0,VALID,20.1123,VALID,335,VALID,0,
2014-10-31, 01:10:05,VALID,916.52,VALID,0,VALID,97.7779,VALID,0,VALID,20.1108,VALID,335,VALID,0,
2014-10-31, 01:11:05,VALID,916.512,VALID,0,VALID,97.7932,VALID,0.107441,VALID,20.1318,VALID,335,VALID,0,
2014-10-31, 01:12:05,VALID,916.479,VALID,0,VALID,97.7856,VALID,0,VALID,20.1513,VALID,335,VALID,0,
2014-10-31, 01:13:05,VALID,916.474,VALID,0,VALID,97.7856,VALID,0.107441,VALID,20.1708,VALID,335,VALID,0,
2014-10-31, 01:14:05,VALID,916.456,VALID,0,VALID,97.7932,VALID,0.107441,VALID,20.1498,VALID,335,VALID,0,
2014-10-31, 01:15:05,VALID,916.446,VALID,0,VALID,97.7779,VALID,0.107441,VALID,20.1708,VALID,335,VALID,0,
2014-10-31, 01:16:05,VALID,916.428,VALID,0,VALID,97.7627,VALID,0.107441,VALID,20.1693,VALID,335,VALID,0,
2014-10-31, 01:17:05,VALID,916.399,VALID,0,VALID,97.7703,VALID,0.107441,VALID,20.1693,VALID,335,VALID,0,
2014-10-31, 01:18:05,VALID,916.419,VALID,0,VALID,97.7627,VALID,0.107441,VALID,20.2098,VALID,335,VALID,0,
2014-10-31, 01:19:05,VALID,916.4,VALID,0,VALID,97.7779,VALID,0,VALID,20.2098,VALID,335,VALID,0,
2014-10-31, 01:20:05,VALID,916.394,VALID,0,VALID,97.7703,VALID,0.107441,VALID,20.1693,VALID,335,VALID,0,
2014-10-31, 01:21:05,VALID,916.391,VALID,0,VALID,97.7932,VALID,0.107441,VALID,20.1903,VALID,335,VALID,0,
2014-10-31, 01:22:05,VALID,916.384,VALID,0,VALID,97.7856,VALID,0,VALID,20.1303,VALID,335,VALID,0,
2014-10-31, 01:23:05,VALID,916.411,VALID,0,VALID,97.7779,VALID,0.107441,VALID,20.1498,VALID,335,VALID,0,
2014-10-31, 01:24:05,VALID,916.37,VALID,0,VALID,97.7932,VALID,0,VALID,20.1513,VALID,335,VALID,0,
2014-10-31, 01:25:05,VALID,916.373,VALID,0,VALID,97.8008,VALID,0.107441,VALID,20.1108,VALID,335,VALID,0,
2014-10-31, 01:26:05,VALID,916.358,VALID,0,VALID,97.7932,VALID,0.107441,VALID,20.1123,VALID,335,VALID,0,
2014-10-31, 01:27:05,VALID,916.335,VALID,0,VALID,97.7932,VALID,0,VALID,20.0913,VALID,335,VALID,0,
2014-10-31, 01:28:05,VALID,916.315,VALID,0,VALID,97.7856,VALID,0.107441,VALID,20.1498,VALID,335,VALID,0,
2014-10-31, 01:29:05,VALID,916.319,VALID,0,VALID,97.8008,VALID,0,VALID,20.1693,VALID,335,VALID,0,
2014-10-31, 01:30:05,VALID,916.284,VALID,0,VALID,97.8008,VALID,0.107441,VALID,20.1693,VALID,335,VALID,0,
2014-10-31, 01:31:05,VALID,916.283,VALID,0,VALID,97.7779,VALID,0.107441,VALID,20.1693,VALID,335,VALID,0,
2014-10-31, 01:32:05,VALID,916.273,VALID,0,VALID,97.7779,VALID,0,VALID,20.1888,VALID,335,VALID,0,
2014-10-31, 01:33:05,VALID,916.254,VALID,0,VALID,97.8008,VALID,0.107441,VALID,20.1693,VALID,335,VALID,0,
2014-10-31, 01:34:05,VALID,916.271,VALID,0,VALID,97.8084,VALID,0.107441,VALID,20.1498,VALID,335,VALID,0,
2014-10-31, 01:35:05,VALID,916.262,VALID,0,VALID,97.816,VALID,0.107441,VALID,20.1693,VALID,335,VALID,0,
2014-10-31, 01:36:05,VALID,916.195,VALID,0,VALID,97.8084,VALID,0.107441,VALID,20.1498,VALID,335,VALID,0,
2014-10-31, 01:37:05,VALID,916.199,VALID,0,VALID,97.8008,VALID,0,VALID,20.1318,VALID,335,VALID,0,
2014-10-31, 01:38:05,VALID,916.211,VALID,0,VALID,97.7779,VALID,0,VALID,20.1708,VALID,335,VALID,0,
2014-10-31, 01:39:05,VALID,916.161,VALID,0,VALID,97.7856,VALID,0,VALID,20.1513,VALID,335,VALID,0,
2014-10-31, 01:40:05,VALID,916.155,VALID,0,VALID,97.7932,VALID,0,VALID,20.1513,VALID,335,VALID,0,
2014-10-31, 01:41:05,VALID,916.156,VALID,0,VALID,97.7856,VALID,0,VALID,20.1513,VALID,335,VALID,0,
2014-10-31, 01:42:05,VALID,916.103,VALID,0,VALID,97.8084,VALID,0,VALID,20.1513,INVALID,360,VALID,0,
2014-10-31, 01:43:05,VALID,916.1,VALID,0,VALID,97.7932,VALID,0,VALID,20.1318,VALID,335,VALID,0,
2014-10-31, 01:44:05,VALID,916.111,VALID,0,VALID,97.8008,VALID,0,VALID,20.1513,VALID,335,VALID,0,
2014-10-31, 01:45:05,VALID,916.107,VALID,0,VALID,97.7932,VALID,0,VALID,20.1708,VALID,335,VALID,0,
2014-10-31, 01:46:05,VALID,916.094,VALID,0,VALID,97.8008,VALID,0,VALID,20.1903,VALID,335,VALID,0,
2014-10-31, 01:47:05,VALID,916.071,VALID,0,VALID,97.7932,VALID,0,VALID,20.2504,VALID,335,VALID,0,
2014-10-31, 01:48:05,VALID,916.09,VALID,0,VALID,97.7627,VALID,0,VALID,20.2684,INVALID,360,VALID,0,
2014-10-31, 01:49:05,VALID,916.076,VALID,0,VALID,97.7779,VALID,0,VALID,20.2879,VALID,335,VALID,0,
2014-10-31, 01:50:05,VALID,916.108,VALID,0,VALID,97.7932,VALID,0.107441,VALID,20.2699,VALID,335,VALID,0,
2014-10-31, 01:51:05,VALID,916.07,VALID,0,VALID,97.7856,VALID,0,VALID,20.2699,VALID,335,VALID,0,
2014-10-31, 01:52:05,VALID,916.038,VALID,0,VALID,97.7856,VALID,0,VALID,20.2293,VALID,335,VALID,0,
2014-10-31, 01:53:05,VALID,916.055,VALID,0,VALID,97.7779,VALID,0,VALID,20.2293,VALID,335,VALID,0,
2014-10-31, 01:54:05,VALID,916.036,VALID,0,VALID,97.8084,VALID,0,VALID,20.1903,VALID,335,VALID,0,
2014-10-31, 01:55:05,VALID,916.026,VALID,0,VALID,97.8008,VALID,0,VALID,20.1708,VALID,335,VALID,0,
2014-10-31, 01:56:05,VALID,916.026,VALID,0,VALID,97.8084,VALID,0,VALID,20.2098,VALID,335,VALID,0,
2014-10-31, 01:57:05,VALID,915.985,VALID,0,VALID,97.7703,VALID,0,VALID,20.2293,VALID,335,VALID,0,
2014-10-31, 01:58:05,VALID,916.01,VALID,0,VALID,97.7932,VALID,0,VALID,20.2293,VALID,335,VALID,0,
2014-10-31, 01:59:05,VALID,915.963,VALID,0,VALID,97.7627,VALID,0,VALID,20.2699,VALID,335,VALID,0,
2014-10-31, 02:00:05,VALID,915.985,VALID,0,VALID,97.7856,VALID,0,VALID,20.2489,VALID,335,VALID,0,
2014-10-31, 02:01:05,VALID,915.947,VALID,0,VALID,97.7703,VALID,0,VALID,20.2309,VALID,335,VALID,0,
2014-10-31, 02:02:05,VALID,915.941,VALID,0,VALID,97.7856,VALID,0,VALID,20.2098,VALID,335,VALID,0,
2014-10-31, 02:03:04,VALID,915.922,VALID,0,VALID,97.7932,VALID,0,VALID,20.1903,VALID,335,VALID,0,
2014-10-31, 02:04:04,VALID,915.866,VALID,0,VALID,97.816,VALID,0,VALID,20.1708,VALID,335,VALID,0,
2014-10-31, 02:05:04,VALID,915.858,VALID,0,VALID,97.7856,VALID,0,VALID,20.2098,VALID,335,VALID,0,
2014-10-31, 02:06:04,VALID,915.813,VALID,0,VALID,97.8084,VALID,0,VALID,20.2098,VALID,335,VALID,0,
2014-10-31, 02:07:04,VALID,915.776,VALID,0,VALID,97.8008,VALID,0,VALID,20.2293,VALID,335,VALID,0,
2014-10-31, 02:08:04,VALID,915.783,VALID,0,VALID,97.8008,VALID,0,VALID,20.2684,VALID,335,VALID,0,
2014-10-31, 02:09:04,VALID,915.731,VALID,0,VALID,97.7779,VALID,0,VALID,20.2489,VALID,335,VALID,0,
2014-10-31, 02:10:04,VALID,915.72,VALID,0,VALID,97.7779,VALID,0,VALID,20.2879,VALID,335,VALID,0,
2014-10-31, 02:11:04,VALID,915.705,VALID,0,VALID,97.7932,VALID,0,VALID,20.2879,VALID,335,VALID,0,
2014-10-31, 02:12:04,VALID,915.692,VALID,0,VALID,97.8008,VALID,0,VALID,20.2684,VALID,335,VALID,0,
2014-10-31, 02:13:04,VALID,915.652,VALID,0,VALID,97.7703,VALID,0,VALID,20.2684,VALID,335,VALID,0,
2014-10-31, 02:14:04,VALID,915.629,VALID,0,VALID,97.8008,VALID,0,VALID,20.2098,VALID,335,VALID,0,
2014-10-31, 02:15:04,VALID,915.591,VALID,0,VALID,97.8237,VALID,0,VALID,20.1708,VALID,335,VALID,0,
2014-10-31, 02:16:04,VALID,915.572,VALID,0,VALID,97.8084,VALID,0,VALID,20.1708,VALID,335,VALID,0,
2014-10-31, 02:17:04,VALID,915.592,VALID,0,VALID,97.816,VALID,0,VALID,20.1513,VALID,335,VALID,0,
2014-10-31, 02:18:04,VALID,915.572,VALID,0,VALID,97.816,VALID,0,VALID,20.1513,VALID,335,VALID,0,
2014-10-31, 02:19:04,VALID,915.557,VALID,0,VALID,97.8084,VALID,0,VALID,20.1513,VALID,335,VALID,0,
2014-10-31, 02:20:04,VALID,915.591,VALID,0,VALID,97.8008,VALID,0,VALID,20.1513,VALID,335,VALID,0,
2014-10-31, 02:21:04,VALID,915.545,VALID,0,VALID,97.7932,VALID,0,VALID,20.1513,VALID,335,VALID,0,
2014-10-31, 02:22:04,VALID,915.533,VALID,0,VALID,97.8008,VALID,0.107441,VALID,20.1888,VALID,335,VALID,0,
2014-10-31, 02:23:04,VALID,915.538,VALID,0,VALID,97.8008,VALID,0,VALID,20.2083,VALID,335,VALID,0,
2014-10-31, 02:24:04,VALID,915.549,VALID,0,VALID,97.8008,VALID,0.107441,VALID,20.2083,VALID,335,VALID,0,
2014-10-31, 02:25:04,VALID,915.536,VALID,0,VALID,97.7856,VALID,0.107441,VALID,20.1888,VALID,335,VALID,0,
2014-10-31, 02:26:04,VALID,915.552,VALID,0,VALID,97.7932,VALID,0.107441,VALID,20.1873,VALID,335,VALID,0,
2014-10-31, 02:27:04,VALID,915.533,VALID,0,VALID,97.7856,VALID,0.107441,VALID,20.2278,VALID,335,VALID,0,
2014-10-31, 02:28:04,VALID,915.538,VALID,0,VALID,97.7856,VALID,0.107441,VALID,20.2278,VALID,335,VALID,0,
2014-10-31, 02:29:04,VALID,915.516,VALID,0,VALID,97.8084,VALID,0,VALID,20.2278,VALID,335,VALID,0,
2014-10-31, 02:30:04,VALID,915.536,VALID,0,VALID,97.7856,VALID,0.107441,VALID,20.2863,VALID,335,VALID,0,
2014-10-31, 02:31:04,VALID,915.542,VALID,0,VALID,97.7627,VALID,0.107441,VALID,20.3058,VALID,335,VALID,0,
2014-10-31, 02:32:04,VALID,915.527,VALID,0,VALID,97.7703,VALID,0.107441,VALID,20.3253,VALID,335,VALID,0,
2014-10-31, 02:33:04,VALID,915.536,VALID,0,VALID,97.7703,VALID,0.107441,VALID,20.3643,VALID,335,VALID,0,
2014-10-31, 02:34:04,VALID,915.525,VALID,0,VALID,97.7856,VALID,0.107441,VALID,20.2863,VALID,335,VALID,0,
2014-10-31, 02:35:04,VALID,915.532,VALID,0,VALID,97.7856,VALID,0.107441,VALID,20.2473,VALID,335,VALID,0,
2014-10-31, 02:36:04,VALID,915.535,VALID,0,VALID,97.8084,VALID,0.107441,VALID,20.2083,VALID,335,VALID,0,
2014-10-31, 02:37:04,VALID,915.498,VALID,0,VALID,97.8008,VALID,0,VALID,20.1919,VALID,335,VALID,0,
2014-10-31, 02:38:04,VALID,915.537,VALID,0,VALID,97.8237,VALID,0,VALID,20.1724,VALID,335,VALID,0,
2014-10-31, 02:39:04,VALID,915.531,VALID,0,VALID,97.816,VALID,0,VALID,20.1529,VALID,335,VALID,0,
2014-10-31, 02:40:04,VALID,915.519,VALID,0,VALID,97.816,VALID,0,VALID,20.1513,VALID,335,VALID,0,
2014-10-31, 02:41:04,VALID,915.496,VALID,0,VALID,97.8008,VALID,0,VALID,20.1708,VALID,335,VALID,0,
2014-10-31, 02:42:04,VALID,915.533,VALID,0,VALID,97.7932,VALID,0,VALID,20.1708,VALID,335,VALID,0,
2014-10-31, 02:43:04,VALID,915.487,VALID,0,VALID,97.816,VALID,0,VALID,20.1708,VALID,335,VALID,0,
2014-10-31, 02:44:04,VALID,915.488,VALID,0,VALID,97.816,VALID,0,VALID,20.1724,VALID,335,VALID,0,
2014-10-31, 02:45:04,VALID,915.463,VALID,0,VALID,97.8313,VALID,0,VALID,20.1318,VALID,335,VALID,0,
2014-10-31, 02:46:04,VALID,915.449,VALID,0,VALID,97.8313,VALID,0,VALID,20.1123,VALID,354,VALID,0,
2014-10-31, 02:47:04,VALID,915.438,VALID,0,VALID,97.8313,VALID,0,VALID,20.1123,VALID,354,VALID,0,
2014-10-31, 02:48:04,VALID,915.447,VALID,0,VALID,97.8084,VALID,0,VALID,20.0928,VALID,354,VALID,0,
2014-10-31, 02:49:04,VALID,915.409,VALID,0,VALID,97.8465,VALID,0,VALID,20.0733,VALID,354,VALID,0,
2014-10-31, 02:50:04,VALID,915.405,VALID,0,VALID,97.8313,VALID,0,VALID,20.0928,VALID,355,VALID,0,
2014-10-31, 02:51:04,VALID,915.378,VALID,0,VALID,97.8313,VALID,0,VALID,20.0733,VALID,355,VALID,0,
2014-10-31, 02:52:04,VALID,915.361,VALID,0,VALID,97.8313,VALID,0,VALID,20.0733,VALID,355,VALID,0,
2014-10-31, 02:53:04,VALID,915.344,VALID,0,VALID,97.816,VALID,0,VALID,20.0749,VALID,355,VALID,0,
2014-10-31, 02:54:04,VALID,915.308,VALID,0,VALID,97.8237,VALID,0,VALID,20.0733,VALID,355,VALID,0,
2014-10-31, 02:55:04,VALID,915.283,VALID,0,VALID,97.8313,VALID,0,VALID,20.0733,VALID,355,VALID,0,
2014-10-31, 02:56:04,VALID,915.223,VALID,0,VALID,97.8237,VALID,0,VALID,20.0944,VALID,355,VALID,0,
2014-10-31, 02:57:04,VALID,915.213,VALID,0,VALID,97.8008,VALID,0,VALID,20.0749,VALID,355,VALID,0,
2014-10-31, 02:58:04,VALID,915.195,VALID,0,VALID,97.8084,VALID,0,VALID,20.0733,VALID,18,VALID,0,
2014-10-31, 02:59:04,VALID,915.18,VALID,0,VALID,97.8008,VALID,0,VALID,20.0538,VALID,18,VALID,0,
2014-10-31, 03:00:04,VALID,915.132,VALID,0,VALID,97.8237,VALID,0,VALID,20.0538,VALID,18,VALID,0,
2014-10-31, 03:01:04,VALID,915.131,VALID,0,VALID,97.8389,VALID,0,VALID,20.0733,VALID,18,VALID,0,
2014-10-31, 03:02:04,VALID,915.095,VALID,0,VALID,97.8084,VALID,0,VALID,20.0944,VALID,18,VALID,0,
2014-10-31, 03:03:04,VALID,915.085,VALID,0,VALID,97.8313,VALID,0,VALID,20.0928,VALID,18,VALID,0,
2014-10-31, 03:04:04,VALID,915.096,VALID,0,VALID,97.8237,VALID,0,VALID,20.0944,VALID,18,VALID,0,
2014-10-31, 03:05:04,VALID,915.081,VALID,0,VALID,97.8084,VALID,0,VALID,20.0928,VALID,18,VALID,0,
2014-10-31, 03:06:04,VALID,915.101,VALID,0,VALID,97.816,VALID,0,VALID,20.1139,VALID,18,VALID,0,
2014-10-31, 03:07:04,VALID,915.069,VALID,0,VALID,97.8084,VALID,0,VALID,20.1139,VALID,18,VALID,0,
2014-10-31, 03:08:04,VALID,915.039,VALID,0,VALID,97.816,VALID,0,VALID,20.0733,VALID,18,VALID,0,
2014-10-31, 03:09:04,VALID,915.057,VALID,0,VALID,97.816,VALID,0,VALID,20.0944,VALID,18,VALID,0,
2014-10-31, 03:10:04,VALID,915.073,VALID,0,VALID,97.8237,VALID,0,VALID,20.0733,VALID,18,VALID,0,
2014-10-31, 03:11:04,VALID,915.106,VALID,0,VALID,97.816,VALID,0,VALID,20.0538,VALID,18,VALID,0,
2014-10-31, 03:12:04,VALID,915.125,VALID,0,VALID,97.8084,VALID,0,VALID,20.0538,VALID,18,VALID,0,
2014-10-31, 03:13:04,VALID,915.14,VALID,0,VALID,97.8084,VALID,0,VALID,20.0749,VALID,18,VALID,0,
2014-10-31, 03:14:04,VALID,915.18,VALID,0,VALID,97.8084,VALID,0,VALID,20.0733,VALID,18,VALID,0,
2014-10-31, 03:15:04,VALID,915.203,VALID,0,VALID,97.8313,VALID,0,VALID,20.0733,VALID,18,VALID,0,
2014-10-31, 03:16:04,VALID,915.195,VALID,0,VALID,97.8008,VALID,0,VALID,20.0944,VALID,18,VALID,0,
2014-10-31, 03:17:04,VALID,915.203,VALID,0,VALID,97.8084,VALID,0,VALID,20.0343,VALID,18,VALID,0.684375,
2014-10-31, 03:18:04,VALID,915.23,VALID,0,VALID,97.8237,VALID,0,VALID,20.0343,VALID,18,VALID,1.04219,
2014-10-31, 03:19:04,VALID,915.244,VALID,0,VALID,97.8313,VALID,0,VALID,20.0343,VALID,18,VALID,0.866406,
2014-10-31, 03:20:04,VALID,915.252,VALID,0,VALID,97.816,VALID,0,VALID,20.0538,VALID,18,VALID,0.795703,
2014-10-31, 03:21:04,VALID,915.265,VALID,0,VALID,97.8389,VALID,0,VALID,20.0358,VALID,18,VALID,0.878906,
2014-10-31, 03:22:04,VALID,915.262,VALID,0,VALID,97.8084,VALID,0,VALID,20.0148,VALID,18,VALID,0,
2014-10-31, 03:23:04,VALID,915.26,VALID,0,VALID,97.8237,VALID,0,VALID,20.0343,VALID,18,VALID,0,
2014-10-31, 03:24:04,VALID,915.25,VALID,0,VALID,97.8008,VALID,0,VALID,20.0358,VALID,18,VALID,0,
2014-10-31, 03:25:04,VALID,915.274,VALID,0,VALID,97.8084,VALID,0,VALID,20.0343,VALID,18,VALID,0,
2014-10-31, 03:26:04,VALID,915.232,VALID,0,VALID,97.8237,VALID,0,VALID,20.0358,VALID,19,VALID,0,
2014-10-31, 03:27:04,VALID,915.253,VALID,0,VALID,97.8237,VALID,0,VALID,20.0163,VALID,18,VALID,0,
2014-10-31, 03:28:04,VALID,915.248,VALID,0,VALID,97.816,VALID,0,VALID,20.0358,VALID,18,VALID,0,
2014-10-31, 03:29:04,VALID,915.271,VALID,0,VALID,97.816,VALID,0,VALID,20.0163,VALID,18,VALID,0,
2014-10-31, 03:30:04,VALID,915.253,VALID,0,VALID,97.8237,VALID,0,VALID,20.0358,VALID,18,VALID,0,
2014-10-31, 03:31:04,VALID,915.264,VALID,0,VALID,97.8237,VALID,0,VALID,20.0358,VALID,18,VALID,0.351172,
2014-10-31, 03:32:04,VALID,915.253,VALID,0,VALID,97.8237,VALID,0,VALID,20.0148,VALID,18,VALID,0,
2014-10-31, 03:33:04,VALID,915.257,VALID,0,VALID,97.816,VALID,0,VALID,20.0163,VALID,18,VALID,0,
2014-10-31, 03:34:04,VALID,915.273,VALID,0,VALID,97.8237,VALID,0,VALID,20.0148,VALID,18,VALID,0.00234375,
2014-10-31, 03:35:04,VALID,915.254,VALID,0,VALID,97.8313,VALID,0,VALID,20.0358,VALID,18,VALID,0.938672,
2014-10-31, 03:36:04,VALID,915.276,VALID,0,VALID,97.7932,VALID,0,VALID,20.0148,VALID,18,VALID,0,
2014-10-31, 03:37:04,VALID,915.268,VALID,0,VALID,97.8084,VALID,0.107441,VALID,20.0148,VALID,159,VALID,0.815625,
2014-10-31, 03:38:04,VALID,915.278,VALID,0,VALID,97.8237,VALID,0,VALID,20.0133,VALID,156,VALID,0.0195313,
2014-10-31, 03:39:04,VALID,915.324,VALID,0,VALID,97.816,VALID,0,VALID,20.0133,VALID,165,VALID,0.0507813,
2014-10-31, 03:40:04,VALID,915.333,VALID,0,VALID,97.8084,VALID,0,VALID,20.0343,VALID,148,VALID,0.601953,
2014-10-31, 03:41:04,VALID,915.347,VALID,0,VALID,97.8084,VALID,0,VALID,20.0343,VALID,144,VALID,0,
2014-10-31, 03:42:04,VALID,915.338,VALID,0,VALID,97.8237,VALID,0,VALID,19.9938,VALID,144,VALID,0,
2014-10-31, 03:43:04,VALID,915.35,VALID,0,VALID,97.8008,VALID,0.107441,VALID,20.0343,VALID,139,VALID,0.752734,
2014-10-31, 03:44:04,VALID,915.314,VALID,0,VALID,97.8313,VALID,0,VALID,20.0148,VALID,133,VALID,0.446094,
2014-10-31, 03:45:04,VALID,915.285,VALID,0,VALID,97.8008,VALID,0,VALID,20.0343,VALID,134,VALID,0.0015625,
2014-10-31, 03:46:04,VALID,915.281,VALID,0,VALID,97.816,VALID,0.107441,VALID,20.0148,VALID,138,VALID,0.0277344,
2014-10-31, 03:47:04,VALID,915.27,VALID,0,VALID,97.8313,VALID,0,VALID,20.0343,VALID,138,VALID,0,
2014-10-31, 03:48:04,VALID,915.243,VALID,0,VALID,97.8237,VALID,0.107441,VALID,20.0343,VALID,138,VALID,0,
2014-10-31, 03:49:04,VALID,915.216,VALID,0,VALID,97.816,VALID,0,VALID,20.0538,VALID,138,VALID,0,
2014-10-31, 03:50:04,VALID,915.217,VALID,0,VALID,97.816,VALID,0,VALID,20.0133,VALID,138,VALID,0,
2014-10-31, 03:51:04,VALID,915.178,VALID,0,VALID,97.8084,VALID,0.107441,VALID,20.0538,VALID,138,VALID,0,
2014-10-31, 03:52:04,VALID,915.204,VALID,0,VALID,97.8084,VALID,0,VALID,20.0553,VALID,138,VALID,0,
2014-10-31, 03:53:04,VALID,915.214,VALID,0,VALID,97.816,VALID,0,VALID,20.0148,VALID,161,VALID,0,
